Wind_Speed
37 38 38 38 39 39 37 34 32 31 30 30 29 29 28 27 26 25 24 22 22 21 20 20 19 18 18 17 16 16 16 15 15 14 14 14 14 14 14 13 13 13 13 14 14 14 14 15 15
38 39 39 40 41 40 37 34 33 32 32 31 31 31 30 29 27 26 25 24 23 23 22 21 20 20 19 18 18 17 17 17 17 16 16 16 15 15 15 15 15 15 15 15 16 16 16 17 17
39 40 41 41 42 40 37 35 34 33 33 33 33 33 32 30 29 28 27 26 25 24 23 23 22 21 21 20 19 19 19 18 18 18 18 17 17 17 17 17 17 17 17 17 17 17 17 18 18
39 41 42 43 41 39 38 36 35 35 35 34 34 34 33 32 30 29 28 27 26 26 25 24 24 23 22 21 21 20 20 19 19 19 19 19 19 19 19 19 19 19 19 19 19 19 19 19 19
41 42 43 43 40 38 38 37 36 37 36 36 35 35 34 33 32 31 30 29 28 27 27 26 25 24 23 23 22 22 21 21 21 21 20 20 20 21 21 21 20 20 20 20 20 20 21 21 21
42 43 43 42 40 39 39 38 38 38 38 37 37 36 34 34 33 32 31 30 30 29 28 27 26 26 25 25 24 23 23 23 22 22 22 22 22 22 22 22 22 22 22 21 21 22 22 22 22
43 43 43 42 41 40 40 39 39 39 39 39 38 37 36 35 34 33 32 32 31 30 29 28 28 27 27 26 25 25 25 24 24 24 24 23 23 23 23 23 23 22 22 22 22 22 22 22 22
42 43 43 42 41 40 40 40 40 39 39 39 40 39 37 36 35 34 33 33 32 31 31 30 29 29 28 27 27 26 26 26 25 25 25 25 24 24 24 24 23 23 23 23 23 23 23 23 23
43 44 43 41 41 41 41 41 41 40 40 40 40 39 38 37 36 35 34 34 34 33 32 31 31 30 30 29 28 28 27 27 27 26 26 26 25 25 25 25 25 25 24 24 24 24 25 25 25
44 44 42 41 41 41 41 41 41 41 40 40 40 39 39 38 37 36 35 35 34 34 33 33 32 32 31 31 30 29 29 28 28 28 27 27 27 26 26 26 26 26 26 26 26 26 26 26 26
43 42 41 41 41 42 42 42 41 41 41 40 40 39 39 38 38 37 37 36 36 35 35 34 34 33 32 32 31 31 30 29 29 28 28 28 27 27 27 27 27 27 27 27 28 27 27 27 27
41 41 41 41 41 42 42 42 41 41 40 40 40 40 39 39 38 38 37 37 37 37 36 35 35 34 33 33 32 31 31 30 30 29 29 29 29 28 28 28 28 28 28 29 29 28 28 29 29
42 41 41 42 41 42 43 42 42 41 40 41 41 40 40 39 39 39 38 38 38 37 37 36 36 35 34 33 33 32 31 31 31 30 30 30 30 29 29 29 29 29 29 29 30 30 30 30 31
41 41 42 42 42 41 42 42 42 41 41 41 41 41 40 40 39 39 38 38 38 38 38 38 37 37 36 35 34 33 32 32 31 31 31 31 31 31 31 31 31 31 31 31 31 31 32 32 32
41 41 42 42 42 42 42 42 41 41 41 41 41 41 41 40 39 39 39 39 39 39 39 38 38 38 37 36 35 34 34 33 33 32 32 32 32 32 32 32 32 32 32 32 33 33 33 33 33
40 41 42 42 42 42 43 42 41 41 41 41 41 41 41 40 39 39 39 39 39 39 39 39 38 38 37 37 36 35 34 34 34 34 33 33 33 33 33 33 33 33 33 33 34 34 33 34 34
41 41 41 41 42 42 43 41 41 41 41 41 41 41 41 40 40 39 39 39 39 39 39 38 38 37 37 36 36 35 35 34 34 34 34 34 34 33 34 34 34 34 34 34 34 34 34 34 34
40 41 41 41 41 42 43 41 41 41 41 41 41 41 41 40 40 40 40 40 39 39 39 38 38 37 37 37 36 36 35 34 34 34 34 34 33 33 33 33 33 33 34 34 34 34 34 34 35
39 40 40 41 42 43 43 41 41 41 41 41 41 41 41 40 41 41 40 40 40 39 39 39 38 37 37 36 36 36 35 34 34 34 33 33 33 33 34 33 33 33 33 33 33 34 34 34 34
39 40 40 40 42 43 43 42 41 42 42 41 41 41 41 41 41 41 41 40 40 39 39 39 38 38 37 37 36 35 35 34 34 33 32 33 33 33 33 33 33 33 33 33 33 34 34 35 35
40 40 40 40 41 42 43 43 42 41 42 42 42 42 41 40 40 40 41 41 40 39 39 39 38 38 38 37 36 35 35 34 34 33 33 32 33 33 33 33 32 33 33 33 34 35 35 35 36
38 39 39 40 41 42 42 43 43 42 41 41 41 41 41 40 40 40 40 40 40 40 39 39 39 39 38 38 37 35 35 34 34 33 32 32 32 32 32 32 32 33 33 34 35 36 36 37 37
36 37 37 39 41 42 42 43 42 42 41 40 40 40 40 40 39 39 39 39 40 40 40 39 39 38 38 37 36 35 35 34 34 33 32 32 31 31 32 32 32 33 34 34 35 35 36 36 36
32 34 35 37 40 42 42 43 42 41 39 39 39 39 39 39 39 39 39 39 39 39 39 39 39 38 38 37 36 35 35 34 34 33 33 33 32 32 32 32 32 32 32 33 33 34 34 35 35
30 31 32 35 38 41 41 42 42 40 39 38 38 38 38 39 39 38 39 39 39 39 39 39 39 38 38 38 37 36 35 35 34 33 33 33 33 32 32 31 31 32 32 32 33 34 35 35 36
29 31 32 33 36 38 40 41 40 39 38 37 37 38 38 38 38 38 38 38 39 38 38 38 39 38 37 38 37 36 35 35 34 34 33 33 32 32 32 32 33 33 33 34 34 35 36 37 37
28 29 31 33 34 35 37 39 39 38 37 37 37 37 37 37 38 38 39 38 38 38 38 38 38 38 37 37 38 37 36 35 35 34 33 33 33 33 33 33 33 34 34 34 35 36 37 37 38
29 28 28 31 32 34 35 36 37 36 36 36 36 36 36 36 37 38 38 38 38 38 37 37 38 38 38 37 38 38 37 36 35 34 34 34 34 34 34 34 34 35 35 35 36 37 37 38 39
29 30 29 31 32 33 34 35 35 35 35 35 35 36 36 36 36 37 38 38 38 38 38 38 38 38 38 38 37 37 37 36 36 35 35 35 35 35 35 35 36 36 36 36 37 38 38 39 40
29 29 29 30 31 33 34 34 33 33 34 35 35 35 35 35 35 36 37 37 38 38 38 38 37 37 38 38 38 37 37 37 36 35 36 35 35 36 36 36 36 37 37 37 38 39 40 40 41
Wind_Direction
233 233 233 233 234 235 235 234 234 234 234 234 235 235 235 236 236 238 238 238 238 238 238 238 239 239 239 240 242 244 245 245 248 250 253 255 258 261 262 262 264 266 268 269 271 273 275 277 279
233 233 234 234 235 235 235 234 234 234 235 235 235 235 235 235 236 238 239 238 238 239 239 239 239 240 240 242 243 245 246 247 249 252 254 256 259 261 262 262 263 265 268 270 272 274 275 277 279
234 234 234 235 235 236 236 235 234 234 235 235 235 235 235 236 237 238 239 239 238 239 239 239 240 242 243 243 244 245 247 249 250 251 254 256 259 261 263 264 264 265 268 271 273 274 275 277 279
234 235 235 235 235 235 236 235 235 235 235 235 235 236 235 236 236 237 238 237 237 237 239 240 241 242 243 244 245 245 247 250 252 253 255 257 259 261 263 264 266 268 269 270 272 274 276 278 279
235 235 236 236 235 235 235 235 234 235 234 235 235 235 235 235 236 236 236 236 237 238 238 239 240 241 242 244 246 247 249 252 254 256 256 258 260 262 264 265 266 268 269 270 271 274 275 277 278
236 236 237 237 235 235 235 235 234 235 234 234 234 234 234 235 235 235 235 236 237 237 237 238 239 241 242 243 246 249 251 253 255 257 258 259 262 264 265 266 267 268 269 270 271 274 275 278 279
236 236 237 237 235 235 235 235 234 234 234 233 233 234 234 234 234 234 234 235 235 236 237 238 239 241 243 244 247 250 252 254 256 258 259 261 262 263 265 266 267 269 269 270 271 273 276 277 278
235 236 237 236 235 235 234 235 234 234 234 233 233 234 234 234 234 234 234 234 235 236 237 238 239 241 243 245 247 250 252 254 256 258 260 261 261 262 264 265 267 268 269 270 272 274 275 277 278
235 235 235 235 235 234 233 234 234 233 234 233 234 234 234 234 234 234 234 234 235 236 237 238 240 241 243 245 247 250 253 255 256 258 260 261 261 262 264 265 266 267 269 271 273 274 275 277 278
234 235 235 235 235 234 233 233 233 233 233 233 234 234 234 234 234 234 234 234 235 236 237 238 240 242 244 246 248 250 252 255 256 258 259 260 261 262 264 265 266 267 269 271 273 274 275 276 278
235 235 234 234 233 233 233 232 232 232 232 232 233 233 233 233 234 234 234 234 234 235 236 238 240 242 243 246 248 249 252 254 256 257 258 260 261 262 264 265 267 268 269 271 272 274 275 276 277
236 235 234 233 233 233 232 232 232 231 231 231 232 232 232 232 233 233 233 233 234 235 237 238 240 241 243 245 247 249 251 253 254 256 257 259 262 263 264 267 268 269 270 271 272 273 275 276 277
235 235 234 233 232 232 232 232 231 231 230 231 231 232 232 232 232 233 233 234 234 235 237 239 240 241 243 245 247 249 251 252 254 256 257 259 262 264 265 267 269 270 270 271 272 274 275 276 277
235 234 233 232 231 231 232 231 231 229 230 230 231 231 232 232 232 232 233 234 235 236 237 239 240 242 243 245 246 249 251 253 254 255 257 260 262 264 266 268 269 270 270 271 272 274 276 277 277
234 233 231 231 231 231 231 231 231 229 230 230 231 231 231 232 232 232 233 235 235 236 237 239 240 242 244 246 247 249 250 252 254 255 257 259 261 263 266 267 269 269 270 271 273 274 276 277 277
232 231 230 229 230 230 231 230 229 229 229 229 230 230 230 231 231 232 233 235 236 237 238 239 241 242 244 246 247 248 250 252 254 255 257 259 262 264 266 267 268 269 270 271 273 274 275 277 278
231 231 230 229 230 230 230 230 229 229 228 228 229 230 231 231 231 232 233 234 236 236 238 239 241 242 244 245 246 248 250 251 253 255 257 260 262 265 266 267 268 269 270 272 273 275 276 277 278
231 231 231 230 229 230 230 230 229 229 228 228 228 230 231 231 232 232 232 234 236 237 238 239 241 242 243 244 246 247 250 251 254 256 258 260 262 264 266 267 269 270 271 273 274 275 276 277 279
233 232 232 231 230 230 229 229 228 228 228 228 229 230 231 231 232 232 233 234 235 237 237 239 240 242 242 244 246 248 250 252 254 257 259 261 262 264 265 267 269 270 271 273 274 276 276 278 279
231 232 232 231 230 230 230 229 228 229 229 229 229 230 231 231 232 233 234 234 235 237 237 238 240 241 242 244 246 248 249 251 253 256 258 260 262 263 265 267 269 271 271 273 274 276 277 279 280
230 232 232 232 230 230 230 229 229 229 229 230 230 230 231 232 233 234 235 235 236 236 238 238 240 241 242 244 246 248 249 251 252 255 258 260 262 264 265 267 269 270 272 274 275 276 278 279 281
231 232 233 233 231 231 230 230 229 229 230 229 231 231 232 233 233 234 235 235 236 237 237 238 239 241 242 243 245 247 248 250 252 254 258 260 263 264 265 267 268 270 272 274 275 276 278 280 281
231 231 232 232 231 231 229 230 229 229 229 229 230 232 232 233 232 233 234 235 236 236 237 238 239 241 242 243 244 246 247 249 251 254 257 260 262 264 266 268 270 271 273 274 276 278 279 281 283
231 231 230 231 231 231 229 230 230 229 229 230 231 231 232 233 233 233 233 234 235 237 236 237 239 241 241 241 243 246 248 250 251 254 257 259 262 264 266 269 270 272 273 275 277 279 281 282 284
228 228 229 229 230 231 230 231 231 230 230 231 231 232 232 232 233 233 234 235 236 237 237 237 239 240 241 241 243 246 248 250 252 253 256 259 262 264 266 268 270 272 274 275 278 280 282 284 285
226 227 228 229 230 231 231 232 231 231 231 232 232 232 232 232 233 233 234 235 237 238 238 237 238 239 240 241 243 245 248 250 252 254 256 258 260 263 265 267 270 272 274 275 278 280 282 284 285
226 228 230 231 233 233 233 232 231 231 232 233 233 232 232 232 233 233 234 235 236 238 238 239 239 240 240 241 243 245 247 249 252 253 255 258 260 263 265 268 270 273 274 277 279 281 283 285 286
226 228 228 229 232 234 234 234 232 231 232 233 233 233 232 232 233 234 235 236 236 237 237 238 238 239 241 241 243 245 247 249 251 252 255 258 260 263 265 268 270 273 275 277 280 282 284 286 287
225 226 228 230 231 233 234 235 233 234 233 234 235 235 234 234 235 236 236 235 235 236 237 237 237 238 240 241 243 245 247 249 250 253 255 257 260 263 265 268 271 273 275 278 280 283 285 287 288
230 231 231 231 232 234 236 236 237 237 236 235 235 236 236 235 235 235 235 235 235 235 236 237 237 237 238 239 242 245 247 249 251 253 255 258 261 263 265 268 271 273 276 279 281 283 285 287 288
Height
5803 5806 5809 5811 5814 5816 5820 5826 5830 5833 5835 5837 5839 5841 5844 5846 5849 5852 5852 5853 5854 5856 5857 5859 5860 5861 5863 5864 5865 5865 5866 5867 5868 5868 5869 5869 5869 5869 5869 5869 5869 5869 5868 5868 5868 5868 5867 5867 5867
5796 5799 5802 5803 5806 5809 5816 5821 5824 5827 5830 5832 5834 5836 5838 5840 5843 5845 5847 5848 5850 5852 5853 5855 5857 5858 5859 5861 5862 5863 5864 5864 5865 5865 5866 5866 5866 5867 5867 5866 5866 5866 5866 5866 5865 5865 5865 5864 5864
5788 5791 5794 5796 5799 5805 5811 5815 5818 5820 5823 5825 5827 5830 5833 5836 5838 5840 5842 5844 5846 5848 5849 5851 5853 5854 5856 5857 5858 5860 5861 5862 5862 5863 5863 5863 5864 5864 5864 5864 5864 5864 5863 5863 5863 5862 5862 5861 5861
5780 5783 5786 5789 5794 5800 5803 5807 5811 5813 5816 5819 5821 5824 5827 5831 5833 5835 5837 5839 5841 5843 5845 5847 5849 5851 5852 5853 5855 5856 5857 5858 5859 5859 5860 5860 5861 5861 5861 5861 5861 5860 5860 5860 5859 5859 5859 5858 5857
5772 5775 5777 5781 5788 5793 5796 5800 5803 5806 5809 5812 5815 5818 5821 5824 5827 5829 5832 5834 5836 5838 5840 5842 5844 5846 5848 5849 5851 5852 5854 5855 5855 5856 5856 5857 5857 5857 5857 5857 5857 5857 5857 5856 5856 5855 5855 5855 5854
5764 5767 5770 5775 5781 5785 5788 5792 5795 5798 5801 5804 5807 5811 5815 5817 5820 5823 5826 5829 5831 5833 5835 5838 5840 5842 5844 5845 5847 5848 5849 5850 5851 5852 5852 5853 5853 5853 5853 5853 5853 5853 5853 5852 5852 5852 5851 5851 5850
5756 5759 5763 5768 5773 5777 5781 5783 5787 5790 5793 5797 5800 5804 5808 5811 5814 5817 5820 5823 5825 5828 5830 5832 5835 5837 5839 5840 5842 5844 5845 5846 5847 5847 5848 5848 5849 5849 5849 5849 5849 5849 5849 5848 5848 5848 5847 5847 5846
5747 5751 5754 5760 5764 5769 5772 5775 5779 5782 5786 5789 5793 5797 5801 5804 5807 5810 5814 5817 5820 5822 5825 5827 5829 5832 5834 5836 5837 5839 5840 5841 5842 5843 5843 5844 5844 5844 5844 5845 5845 5844 5844 5844 5844 5843 5843 5842 5842
5737 5742 5746 5752 5756 5761 5764 5767 5771 5774 5778 5782 5785 5790 5794 5797 5800 5804 5807 5810 5813 5816 5819 5821 5824 5826 5828 5830 5832 5834 5835 5836 5837 5838 5838 5839 5839 5839 5839 5840 5840 5840 5840 5839 5839 5839 5838 5838 5837
5727 5732 5739 5744 5748 5751 5755 5758 5762 5766 5770 5774 5778 5782 5786 5789 5793 5797 5800 5804 5807 5810 5813 5815 5818 5820 5823 5825 5827 5828 5830 5831 5832 5832 5833 5834 5834 5834 5835 5835 5835 5835 5835 5835 5834 5834 5833 5833 5832
5719 5725 5731 5735 5738 5742 5745 5749 5753 5757 5762 5766 5770 5774 5778 5782 5786 5789 5793 5797 5800 5803 5806 5809 5812 5814 5817 5819 5821 5822 5824 5825 5826 5827 5828 5828 5829 5829 5830 5830 5830 5830 5829 5829 5829 5828 5828 5827 5826
5711 5717 5721 5725 5729 5733 5736 5740 5745 5749 5754 5758 5761 5765 5770 5774 5778 5782 5786 5789 5793 5796 5799 5802 5805 5808 5810 5812 5814 5816 5818 5819 5820 5821 5822 5823 5823 5824 5824 5824 5824 5824 5824 5824 5823 5823 5822 5822 5821
5702 5707 5711 5715 5719 5723 5727 5732 5736 5741 5745 5749 5753 5757 5762 5766 5770 5774 5778 5782 5785 5789 5792 5796 5799 5801 5804 5806 5808 5810 5812 5813 5814 5815 5816 5817 5818 5818 5818 5818 5818 5818 5818 5818 5817 5817 5816 5816 5815
5693 5697 5701 5705 5710 5714 5718 5723 5728 5733 5736 5741 5745 5750 5754 5758 5762 5766 5771 5774 5778 5782 5785 5788 5791 5794 5797 5799 5801 5803 5805 5807 5808 5809 5810 5811 5811 5812 5812 5812 5812 5812 5812 5811 5811 5811 5810 5809 5808
5683 5687 5692 5696 5700 5705 5710 5715 5720 5724 5728 5733 5737 5741 5746 5750 5754 5759 5763 5767 5770 5774 5777 5781 5784 5787 5790 5792 5794 5796 5798 5800 5801 5802 5803 5804 5805 5805 5806 5806 5806 5806 5805 5805 5805 5804 5803 5802 5801
5673 5677 5682 5688 5692 5696 5702 5707 5712 5715 5720 5724 5729 5733 5737 5742 5746 5751 5755 5759 5762 5766 5770 5773 5776 5779 5782 5785 5787 5789 5791 5793 5794 5796 5796 5797 5798 5798 5799 5799 5799 5799 5798 5798 5798 5797 5796 5795 5794
5664 5669 5674 5680 5683 5688 5692 5699 5703 5707 5711 5716 5721 5725 5729 5734 5738 5743 5747 5751 5755 5759 5762 5765 5769 5772 5775 5777 5780 5782 5784 5786 5787 5788 5790 5790 5791 5791 5792 5792 5792 5792 5791 5791 5791 5790 5789 5788 5787
5657 5661 5666 5671 5675 5680 5684 5690 5695 5699 5703 5708 5712 5717 5721 5726 5731 5735 5739 5743 5747 5751 5755 5758 5761 5764 5767 5770 5772 5775 5777 5779 5780 5781 5782 5783 5784 5784 5785 5785 5785 5785 5784 5784 5783 5783 5782 5781 5780
5649 5653 5658 5662 5666 5671 5676 5681 5686 5691 5695 5700 5705 5709 5714 5718 5722 5726 5731 5735 5739 5743 5747 5751 5754 5757 5760 5762 5765 5767 5770 5771 5773 5774 5775 5776 5777 5777 5777 5778 5777 5777 5777 5777 5776 5775 5774 5773 5772
5639 5644 5649 5654 5658 5662 5668 5673 5678 5683 5687 5692 5696 5701 5706 5710 5714 5719 5723 5727 5732 5736 5739 5743 5746 5749 5752 5755 5757 5760 5762 5764 5766 5767 5768 5769 5769 5770 5770 5770 5770 5770 5770 5769 5769 5768 5767 5765 5764
5631 5636 5641 5646 5650 5654 5659 5665 5670 5674 5679 5683 5688 5692 5697 5702 5707 5711 5715 5720 5724 5728 5732 5735 5738 5741 5744 5747 5750 5752 5754 5756 5758 5760 5761 5762 5762 5763 5763 5763 5763 5763 5762 5762 5761 5760 5759 5758 5756
5624 5629 5633 5637 5642 5646 5651 5656 5662 5666 5671 5675 5680 5685 5689 5694 5699 5703 5707 5711 5716 5720 5723 5727 5730 5733 5736 5739 5742 5745 5747 5749 5751 5752 5753 5754 5755 5755 5755 5755 5755 5755 5755 5754 5753 5752 5750 5749 5748
5616 5621 5625 5629 5633 5638 5643 5647 5653 5658 5662 5668 5673 5677 5681 5686 5690 5695 5699 5703 5707 5711 5715 5719 5722 5726 5729 5732 5735 5737 5739 5741 5743 5744 5746 5747 5747 5747 5748 5748 5748 5747 5746 5746 5744 5743 5742 5740 5739
5608 5613 5617 5621 5624 5629 5635 5639 5645 5649 5656 5661 5665 5669 5673 5677 5682 5686 5690 5694 5699 5703 5707 5710 5714 5718 5721 5724 5727 5730 5732 5734 5735 5737 5738 5739 5740 5740 5740 5740 5740 5739 5738 5738 5736 5735 5733 5732 5730
5601 5606 5610 5613 5616 5621 5627 5630 5637 5643 5648 5653 5657 5661 5665 5669 5673 5678 5682 5686 5690 5694 5698 5702 5706 5709 5713 5716 5719 5722 5724 5726 5728 5729 5730 5731 5732 5732 5732 5732 5732 5731 5731 5730 5728 5727 5726 5724 5722
5595 5600 5604 5607 5610 5615 5619 5623 5631 5635 5640 5644 5649 5653 5657 5661 5665 5670 5674 5678 5682 5686 5690 5693 5697 5701 5705 5708 5711 5713 5716 5718 5720 5721 5722 5723 5724 5724 5725 5725 5724 5724 5723 5722 5721 5719 5717 5715 5713
5589 5593 5598 5601 5604 5608 5611 5617 5623 5627 5632 5636 5640 5644 5649 5653 5657 5661 5665 5669 5673 5677 5681 5685 5689 5692 5696 5699 5702 5705 5707 5710 5712 5713 5714 5715 5716 5717 5717 5717 5716 5716 5715 5714 5712 5711 5709 5707 5704
5584 5588 5591 5594 5597 5601 5605 5609 5615 5620 5624 5628 5632 5636 5641 5645 5649 5653 5657 5661 5665 5669 5672 5676 5680 5684 5687 5690 5693 5696 5699 5701 5703 5705 5706 5707 5708 5708 5708 5708 5708 5707 5707 5705 5704 5702 5700 5698 5695
5578 5582 5584 5588 5591 5595 5599 5605 5608 5613 5617 5621 5624 5628 5632 5637 5640 5644 5648 5652 5656 5660 5664 5667 5671 5675 5678 5682 5685 5688 5690 5692 5695 5696 5698 5699 5699 5700 5700 5700 5700 5699 5698 5697 5695 5693 5691 5689 5686
5572 5576 5579 5582 5585 5589 5593 5600 5601 5605 5609 5612 5616 5620 5624 5628 5632 5636 5639 5643 5647 5651 5655 5659 5663 5666 5670 5673 5676 5679 5681 5684 5686 5688 5689 5690 5691 5691 5691 5691 5691 5690 5689 5688 5686 5684 5682 5679 5676